Regional Weather Roundup
Issued by NWS

Home | Current Version | Previous Version | Text Only | Print | Product List | Glossary On
Versions: 1 2 3 4 5 6 7 8 9 10 11 12 13 14 15 16 17 18 19 20 21 22 23 24 25 26 27 28 29 30 31 32 33 34 35 36 37 38 39 40 41 42 43 44 45 46 47 48 49 50
000
ASUS42 KFFC 290503
RWRGA
WEATHER ROUNDUP FOR GEORGIA
NATIONAL WEATHER SERVICE PEACHTREE CITY GA
100 AM EDT SUN MAR 29 2015

NOTE: "FAIR" INDICATES FEW OR NO CLOUDS BELOW 12,000 FEET WITH NO
SIGNIFICANT WEATHER AND/OR OBSTRUCTIONS TO VISIBILITY.

* = USE WITH CAUTION. THE STATIONS MARKED WITH AN ASTERISK MAY NOT
REPORT WEATHER SUCH AS PRECIPITATION, FOG, OR THUNDER AND ARE NOT
QUALITY CONTROLLED BY NWS.

THE REMARK "TC" DENOTES TEMPERATURE READING IN DEGREES CELSIUS.

GAZ001>058-290600-
NORTH GEORGIA

CITY           SKY/WX    TMP DP  RH WIND       PRES   REMARKS
ATLANTA        CLEAR     38  19  46 W7        30.27R WCI  33
ATHENS         CLEAR     35  19  52 CALM      30.26R
CHAMBLEE       CLEAR     36  16  44 N3        30.27R
PEACHTREE CITY CLEAR     38  22  52 NW6       30.29R WCI  33
ROME           CLEAR     35  19  52 N3        30.31R
WEST ATLANTA   CLEAR     37  18  46 NW3       30.28R
GAINESVILLE    CLEAR     36  15  42 CALM      30.27R
CARTERSVILLE   CLEAR     29  20  69 CALM      30.31R


CITY           SKY/WX    TMP DP  RH WIND       PRES   REMARKS
DALTON*        CLEAR     34  18  51 CALM      30.30S
MARIETTA       CLEAR     35  16  45 NW6       30.27R WCI  30
$$

GAZ059>098-102>109-290600-
CENTRAL GEORGIA

CITY           SKY/WX    TMP DP  RH WIND       PRES   REMARKS
AUGUSTA-BUSH   CLEAR     41  19  41 N9        30.27R
AUGUSTA-DANIEL CLEAR     44  16  32 N8        30.27R
COLUMBUS       CLOUDY    46  18  32 N6        30.29R
MACON          CLEAR     35  28  75 W6        30.27R WCI  30
ROBINS AFB     CLEAR     37  26  64 N7        30.27R WCI  32


CITY           SKY/WX    TMP DP  RH WIND       PRES   REMARKS
LAGRANGE*      PTCLDY    45  23  42 CALM      30.29S
SYLVANIA*      CLEAR     39  32  74 NW3       30.25R
MILLEDGEVILLE* CLEAR     36  30  80 CALM      30.28R
$$

GAZ099>101-110>166-290600-
SOUTH GEORGIA

CITY           SKY/WX    TMP DP  RH WIND       PRES   REMARKS
SAVANNAH       CLEAR     40  33  76 CALM      30.24R
VALDOSTA       PTCLDY    42  39  89 CALM      30.27R
ALMA           MOCLDY    46  41  82 CALM      30.26R
ST SIMONS      PTCLDY    46  37  71 CALM      30.25R
FT STEWART     CLEAR     38  32  81 CALM      30.23R
ALBANY         CLOUDY    49  28  44 NW9       30.30R
HUNTER AFB     CLEAR     40  33  75 W2        30.22R
MOODY AFB      MOCLDY    44  37  75 NW5       30.25R
BRUNSWICK      MOCLDY    43  37  81 CALM      30.26R


CITY           SKY/WX    TMP DP  RH WIND       PRES   REMARKS
BAINBRIDGE*    MOCLDY    52  34  50 NW6       30.30R
MOULTRIE*      PTCLDY    46  34  61 NW3       30.28R
VIDALIA*       CLEAR     43  28  56 N3        30.25S
WAYCROSS*      MOCLDY    49  45  85 CALM      30.26R
DOUGLAS*       CLOUDY    50  37  62 CALM      30.27R
$$



USA.gov is the U.S. government's official web portal to all federal, state and local government web resources and services.